Fort Wayne Police Department
Fort Wayne Police Department
Emergencies Call: 911
Non-Emergencies: (260) 427-1222
report drug house

Daily Activity Logs

Activity Log for January 1, 2014 Community Search

Incident Time Nature Address
14F000001 00:01:27 58 SHOOTING 4800 REED ST
14F000002 00:02:18 113 SHOTS FIRED 7400 MILL RUN DR
14F000013 00:02:52 911 HANG UP 1400 HUGH ST
14F000004 00:03:06 113 SHOTS FIRED 1100 HUESTIS AVE & BROADWAY
14F000003 00:03:36 113 SHOTS FIRED 600 POPLAR ST & OAKLEY ST
14F000006 00:04:55 48 SUSPICIOUS 1200 SUMMIT ST
14F000005 00:06:11 48 SUSPICIOUS 1600 HIGH ST
14F000007 00:07:05 911 HANG UP 2200 RECKEWEG RD
14F000008 00:07:30 113 SHOTS FIRED 600 POPLAR ST & OAKLEY ST
14F000009 00:09:16 28 DUI 6000 JEFFERSON BLVD W & COVINGTON
14F000010 00:11:48 48 SUSPICIOUS 300 COX DR W
14F000012 00:12:08 40A AUDIBLE 5100 INDUSTRIAL RD
14F000011 00:12:09 43 DISTURBANCE 600 FIFTH ST & BARTHOLD ST
14F000014 00:18:10 46 DOMESTIC 7700 TANBARK LN
14F000016 00:23:51 25 PD ACCIDENT 6900 HESSEN CASSEL RD
14F000015 00:24:39 20 PROBLEM UNK 1200 BERRY ST E & CANAL ST
14F000017 00:26:27 48 SUSPICIOUS 1100 SHERMAN BLVD & HIGH ST
14F000020 00:28:21 48,36 500 STADIUM DR
14F000018 00:29:13 23,113 2300 REYNOLDS ST
14F000019 00:30:15 63 CONTACT 6000 CHAPEL PINES RUN
14F000022 00:31:56 911 HANG UP 500 BUCHANAN ST
14F000021 00:35:21 55 FIGHT 4900 LIMA RD
14F000027 00:40:20 44LM 3500 PORTAGE BLVD
14F000026 00:41:25 911 HANG UP 6900 WINFORD SHOALS
14F000024 00:42:03 44LP 3300 ACADEMIC PL
14F000023 00:43:14 96IP 7200 HICKORY CREEK DR
14F000025 00:46:43 48,36 6300 STATE BLVD E
14F000028 00:51:15 46,96 3100 KENTUCKY AVE
14F000029 00:51:53 43 DISTURBANCE 5900 SHELL DR
14F000030 00:52:54 51 THEFT 4500 CLINTON ST N
14F000058 00:53:56 48 SUSPICIOUS 2100 HOBSON DR
14F000052 00:56:06 44LP 1900 HOBSON RD
14F000031 00:58:00 46 DOMESTIC 5800 BUNT DR
14F000044 01:03:52 63 CONTACT 1200 MAIN ST W
14F000032 01:08:25 103 UNWANTED 3000 COLISEUM BLVD W
14F000034 01:09:26 42 INTOX PERSON 6200 CLINTON ST N & BETHANY LN
14F000033 01:10:07 30 TRAFFIC STOP 7100 JEFFERSON BLVD W & EDGEBROOK
14F000036 01:11:29 911 HANG UP 3700 WINTER ST
14F000037 01:20:07 911 HANG UP 600 DEWALD ST W
14F000040 01:20:10 48,36 1500 RANDALLIA DR & VERMONT AVE
14F000038 01:20:37 28 DUI 4200 ANTHONY BLVD S & MCKINNIE AVE
14F000039 01:23:07 51,ATTEMPTED 400 CREIGHTON AVE W
14F000041 01:23:30 41,36 3300 MONO GENE DR
14F000042 01:25:14 44 NUISANCE 6500 COVINGTON RD
14F000043 01:29:36 911 HANG UP 2000 HADLEY RD S & INVERNESS LAKES
14F000047 01:32:37 99 NARCOTICS 6000 CHAPEL PINES RUN
14F000046 01:35:02 23IP VANDALISM 10400 CHERRY CREEK RD
14F000045 01:37:48 61 RAPE 2100 RIEDMILLER AVE
14F000051 01:37:54 34 TRAFF HAZARD 2400 GOSHEN RD
14F000048 01:39:16 103 UNWANTED 2600 STATE BLVD E
14F000060 01:39:30 44LM 1100 FOURTH ST W & FRANKLIN AVE
14F000049 01:40:12 20 PROBLEM UNK 300 PACKARD AVE W & HOAGLAND AVE
14F000050 01:41:27 26 PI ACCIDENT 4100 ARDMORE AVE & ENGLE RD
14F000053 01:45:47 43 DISTURBANCE 2300 WESTBROOK DR
14F000054 01:48:40 46,96 500 CANDLELITE CT
14F000055 01:51:04 103 UNWANTED 3000 COLISEUM BLVD W
14F000056 01:54:03 911 HANG UP 400 WILLIAMS ST W
14F000057 01:56:37 53 ARMED ROB 1400 BROADWAY
14F000059 01:58:30 59 CUTTING/STAB 2600 HOLTON AVE
14F000061 02:03:11 27 RECKLESS DRI 1900 BROADWAY & TAYLOR ST
14F000062 02:05:05 46 DOMESTIC 5000 GAYWOOD DR
14F000063 02:08:09 43 DISTURBANCE 4200 HOLTON AVE
14F000064 02:19:20 51JO 5600 OLD DOVER BLVD
14F000065 02:19:47 46,62 4000 MONROE ST S
14F000066 02:24:03 43 DISTURBANCE 6100 JEFFERSON BLVD W
14F000068 02:25:00 46,96 7300 BEATY AVE
14F000069 02:26:15 43 DISTURBANCE 3100 MCARTHUR DR
14F000067 02:27:20 15 ASSIST 5600 ST JOE RD
14F000070 02:30:23 42 INTOX PERSON 1100 PONTIAC ST E & OLIVER ST
14F000071 02:36:21 911 HANG UP 1400 SUNSHINE AVE
14F000072 02:40:53 96 BATTERY 5600 ST JOE RD
14F000073 02:41:06 41,36 6100 JEFFERSON BLVD W
14F000075 02:43:14 51JO 500 PIERCE AVE
14F000074 02:48:38 25HS HIT SKIP 5500 BELL TOWER LN
14F000079 02:51:11 66 MENTALLY ILL 2000 OAKLAND ST
14F000076 02:52:57 25HS HIT SKIP 6300 ROXANNE DR
14F000077 02:55:05 46 DOMESTIC 2700 MILLBROOK DR
14F000078 02:56:59 96JO 1300 HURON ST
14F000080 03:00:37 48 SUSPICIOUS 900 DAYTON AVE
14F000081 03:03:49 43 DISTURBANCE 5600 ST JOE RD
14F000082 03:04:45 48 SUSPICIOUS 7000 AUTUMN CHASE DR & KENSINGTON
14F000083 03:06:53 48 SUSPICIOUS 1000 COLISEUM BLVD N
14F000084 03:09:21 40P PANIC ALARM 1000 WASHINGTON BLVD W
14F000085 03:11:36 50IP BURG I/P 1600 ROSEMONT DR
14F000104 03:12:20 50 BURGLARY 400 WILLIAMS ST W
14F000086 03:13:15 48 SUSPICIOUS 900 ROCKHILL ST & WASHINGTON BLVD
14F000088 03:17:16 46 DOMESTIC 1800 PAULDING RD E
14F000087 03:17:48 113 SHOTS FIRED 6000 JEFFERSON BLVD W
14F000089 03:23:42 48 SUSPICIOUS 3900 MONROE ST S
14F000091 03:23:46 48 SUSPICIOUS 1000 VAN BUREN ST & JEFFERSON BLVD
14F000090 03:23:49 25 PD ACCIDENT 4600 COVINGTON RD & COVINGTON CLUB
14F000092 03:28:31 44LM 1800 WALLEN RD W
14F000098 03:28:45 65T SUICIDE THR 1800 RICHFIELD DR
14F000093 03:29:28 58 SHOOTING 3600 LOGAN AVE
14F000112 03:31:51 44LM 5100 CLOVERBROOK DR
14F000094 03:34:45 40I INTRUSION 1500 PROFIT DR
14F000095 03:36:58 911 HANG UP 4200 REED ST
14F000096 03:42:38 43 DISTURBANCE 7600 COLD SPRINGS BLVD
14F000097 03:47:19 42 INTOX PERSON 100 MASTERSON AVE E
14F000100 03:49:41 46 DOMESTIC 600 RUDISILL BLVD E
14F000099 03:50:36 50IP BURG I/P 800 CATALINA AVE
14F000101 03:52:34 103 UNWANTED 900 WASHINGTON BLVD E
14F000102 03:56:27 103 UNWANTED 1300 WASHINGTON CENTER RD W
14F000103 03:57:20 46 DOMESTIC 7600 EVANWOOD CT
14F000106 03:57:50 44LP 1800 EMERSON AVE
14F000111 04:00:20 28 DUI 2200 CLINTON ST N
14F000105 04:03:53 911 HANG UP 700 PACKARD AVE W
14F000107 04:05:03 48 SUSPICIOUS 4000 WINTER ST
14F000108 04:05:33 911 HANG UP 1600 ANDREW ST
14F000109 04:07:19 46,96 2400 FAIRFIELD AVE
14F000110 04:14:40 113 SHOTS FIRED 600 WASHINGTON BLVD W
14F000113 04:20:57 44LM 1700 CORTLAND AVE
14F000114 04:22:51 911 HANG UP 3300 COLISEUM BLVD W
14F000132 04:22:53 111D DOG 2300 HUNTERS CV
14F000115 04:31:09 25,86 4600 COVINGTON RD & COVINGTON CLUB
14F000116 04:33:20 103 UNWANTED 800 FULTON ST
14F000117 04:37:34 25,86 6200 STELLHORN RD & MAPLECREST RD
14F000118 04:44:14 48,36 4700 HEATHERWIND DR
14F000119 04:45:35 911 HANG UP 1500 RUDISILL BLVD E
14F000120 04:47:30 48 SUSPICIOUS 1700 OAKVILLE RD
14F000121 04:50:35 65T SUICIDE THR 500 TENNESSEE AVE
14F000122 04:51:56 46,96 1700 TILLMAN RD E
14F000147 04:54:09 18 WORK TRAFFIC 6900 HESSEN CASSEL RD
14F000123 04:57:43 46,96 1400 SUNSHINE AVE
14F000124 05:04:38 43,62 700 UNION ST
14F000135 05:16:57 96 BATTERY 3900 WEISSER PARK AVE
14F000125 05:17:33 33 DISABLED VEH 7300 LIMA RD & COOK RD W
14F000126 05:26:02 EMS 1500 LUMBARD ST
14F000127 05:26:33 26HS PI HITSKIP 3700 WASHINGTON BLVD E
14F000129 05:37:28 43 DISTURBANCE 1800 LUMBARD ST
14F000128 05:38:13 48 SUSPICIOUS 5600 HARTFORD DR
14F000130 05:43:58 46 DOMESTIC 2100 RIEDMILLER AVE
14F000136 05:44:46 33,34 2400 SMITH ST & EMILY ST
14F000131 05:45:38 16V PICKUP VID 00 MAIN ST E
14F000134 05:49:47 96JO 2500 STARDALE DR
14F000133 06:02:21 30 TRAFFIC STOP 4700 WASHINGTON BLVD E & MEYER RD
14F000138 06:08:18 46 DOMESTIC 6600 JOHN ST
14F000137 06:09:13 30 TRAFFIC STOP 3900 LAKE AVE & COLISEUM BLVD N
14F000139 06:30:08 1 MEET 3900 WEISSER PARK AVE
14F000140 06:41:36 40A AUDIBLE 2600 GOSHEN RD
14F000141 06:42:04 40A AUDIBLE 3700 TILLMAN RD E
14F000142 06:54:49 40A AUDIBLE 2900 PAULDING RD E
14F000143 06:56:44 103 UNWANTED 700 MADISON ST
14F000144 06:57:31 46,96 6400 ROXANNE DR
14F000145 07:02:25 911 HANG UP 3100 BELLSHIRE WAY
14F000146 07:03:41 41,36 600 HARRISON ST S & MAIN ST W
14F000148 07:55:48 40P PANIC ALARM 4400 MONROE ST S
14F000149 08:13:40 57 STRONG ARM 2800 PITTSBURG ST
14F000150 08:26:45 103 UNWANTED 1000 CALHOUN ST S
14F000151 08:31:06 911 HANG UP 300 KINNAIRD AVE
14F000152 08:32:26 23 VANDALISM 10400 KNOLLTON RUN
14F000153 08:34:00 19 ESCORT 1700 BEACON ST
14F000154 08:40:05 65T SUICIDE THR 2900 CLINTON ST N
14F000155 08:53:41 911 HANG UP 500 SUTTENFIELD AVE E
14F000156 09:21:40 39R STOLEN RECO 2500 SMITH ST
14F000157 09:22:40 51 THEFT 5100 HESSEN CASSEL RD
14F000158 09:27:09 46 DOMESTIC 5000 WHEATRIDGE RD
14F000162 09:31:45 1 MEET 4600 WASHINGTON BLVD E
14F000159 09:32:24 25HS HIT SKIP 1200 PACKARD AVE W
14F000160 09:34:26 50IP BURG I/P 2200 SHADY BROOK DR & MCCORMICK AV
14F000164 09:38:47 102,TX THREATS 900 WASHINGTON BLVD E
14F000163 09:40:37 48,35 400 COX DR W
14F000161 09:43:45 40A AUDIBLE 2800 STATE BLVD E
14F000165 10:00:59 63 CONTACT 2900 CALHOUN ST S
14F000166 10:04:38 44LM 700 DEWALD ST W
14F000167 10:05:50 EMS 2600 HOLTON AVE
14F000168 10:07:45 40A AUDIBLE 5100 INDUSTRIAL RD
14F000169 10:11:02 911 HANG UP 6500 WAKOPA CT
14F000170 10:13:54 34 TRAFF HAZARD 31100 I 69 NB
14F000171 10:41:05 50IP BURG I/P 2700 PAULDING RD E
14F000172 10:43:45 1 MEET 7500 IDEAL AVE
14F000173 10:54:17 911 HANG UP 10600 WESTLAKES DR N
14F000174 11:00:21 48,36 5600 ST JOE CENTER RD & YMCA PARK
14F000175 11:04:15 46 DOMESTIC 6100 CHATHAM DR
14F000176 11:04:44 911 HANG UP 1200 FAYETTE DR
14F000177 11:19:21 25HS HIT SKIP 6000 FAIRFIELD AVE
14F000178 11:21:00 911 HANG UP 4100 HESSEN CASSEL RD
14F000179 11:23:58 25 PD ACCIDENT 2000 NUTTMAN AVE
14F000180 11:28:24 48,36 7000 BLUFFTON RD
14F000181 11:30:43 43 DISTURBANCE 4800 WAYNE PARK DR
14F000182 11:33:34 25 PD ACCIDENT 2000 BROADWAY
14F000183 11:33:47 113 SHOTS FIRED 4500 SPATZ AVE
14F000184 11:45:18 EMS 8200 SUNNY LN
14F000204 11:46:03 108 FOLLOWUP 4800 SPATZ AVE
14F000185 11:56:29 46 DOMESTIC 3300 BRISTERS SPRING RUN
14F000186 12:04:25 911 HANG UP 3600 LILLIE ST
14F000193 12:04:59 44LM 1700 HOBSON RD
14F000187 12:07:09 96JO 500 PIERCE AVE
14F000189 12:09:47 46 DOMESTIC 2100 RIEDMILLER AVE
14F000191 12:10:08 911 HANG UP 700 OAKLAWN CT
14F000188 12:10:43 25 PD ACCIDENT 1900 GOSHEN RD & HARRIS RD
14F000190 12:11:03 911 HANG UP 3200 ST JOE CENTER RD
14F000192 12:14:40 46 DOMESTIC 1200 ONEIDA ST
14F000216 12:20:57 50 BURGLARY 2900 BOWSER AVE
14F000194 12:26:50 46 DOMESTIC 1800 CLOVER LN
14F000196 12:27:22 911 HANG UP 4500 SOUTHPARK DR
14F000195 12:30:51 66V MENTAL VIOL 5500 HOMEWOOD DR
14F000197 12:36:17 40A AUDIBLE 5700 ANTHONY BLVD S
14F000198 12:43:08 63 CONTACT 1200 VANCE AVE
14F000199 12:47:49 48 SUSPICIOUS 1000 WASHINGTON BLVD W
14F000200 12:51:15 25 PD ACCIDENT 1400 WASHINGTON CENTER RD E & CLIN
14F000211 13:11:31 48 SUSPICIOUS 2700 STARDALE DR
14F000201 13:11:50 40A AUDIBLE 2700 WINDPUMP RD
14F000202 13:12:49 40A AUDIBLE 300 WASHINGTON CENTER RD W
14F000203 13:17:38 33J LOCKED OUT 3500 ST JOE CENTER RD
14F000205 13:18:42 103 UNWANTED 2000 SEDDLEMEYER AVE
14F000206 13:22:50 25 PD ACCIDENT 4200 JEFFERSON BLVD W & APPLE GLEN
14F000207 13:27:33 40A AUDIBLE 5600 COUNTESS DR
14F000208 13:28:32 911 HANG UP 300 COLISEUM BLVD W
14F000209 13:33:55 43 DISTURBANCE 2000 MAUMEE AVE
14F000210 13:37:59 911 HANG UP 1400 GREENE ST
14F000212 13:42:28 27 RECKLESS DRI 200 SUPERIOR ST W & WELLS ST
14F000215 13:45:56 96 BATTERY 1700 HIGH ST
14F000213 13:51:42 911 HANG UP 2700 WASHINGTON CENTER RD W
14F000219 13:52:45 44 NUISANCE 3300 HARRISON ST S
14F000214 13:56:34 30 TRAFFIC STOP 4000 ST JOE CENTER RD
14F000217 14:08:12 46 DOMESTIC 9200 SEA WIND PL
14F000218 14:11:06 99 NARCOTICS 700 COLUMBIA AVE
14F000220 14:13:58 27 RECKLESS DRI 17800 US 27 S & SOUTHCOUNTY LINE R
14F000231 14:20:45 56 MOLESTING 7700 SOUTHTOWN XING
14F000221 14:24:13 911 HANG UP 4700 HARRISON ST S
14F000222 14:32:51 911 HANG UP 2300 CANDLEWICK DR
14F000223 14:36:00 46,96 3800 NEWPORT AVE
14F000224 14:43:01 911 HANG UP 1900 SCOTT RD S
14F000225 14:46:40 46 DOMESTIC 3000 SCHAPER DR
14F000226 14:47:43 46 DOMESTIC 1700 CAPITOL AVE
14F000243 14:50:13 1 MEET 100 WAYNE ST E
14F000227 14:50:59 46,96 3500 SENATE AVE
14F000229 14:52:34 33,34 4100 WASHINGTON RD N
14F000228 14:53:54 51,35 10900 WINDSOR WOODS BLVD
14F000230 14:57:35 911 HANG UP 1100 RIVERMET AVE
14F000233 15:06:31 102,TX THREATS 900 COLISEUM BLVD E
14F000232 15:08:34 48 SUSPICIOUS 1800 COLISEUM BLVD W
14F000234 15:12:01 30 TRAFFIC STOP 3700 JEFFERSON BLVD W & ARDMORE AV
14F000235 15:12:33 30 TRAFFIC STOP 5800 COLDWATER RD & WASHINGTON CEN
14F000236 15:16:35 911 HANG UP 800 LAKE AVE
14F000241 15:22:36 33,34 1400 COLISEUM BLVD N & LAKE AVE
14F000239 15:25:14 63 CONTACT 5400 COVENTRY LN
14F000237 15:27:18 129 3300 CILANTRO CV
14F000238 15:27:46 103 UNWANTED 300 SUPERIOR ST W
14F000240 15:28:46 911 HANG UP 3700 WASHINGTON BLVD E
14F000245 15:33:59 24 MISSING PERS 5900 SAWMILL WOODS DR
14F000242 15:36:05 129 5200 STONECREEK TRL
14F000251 15:38:05 25HS HIT SKIP 4700 WINTERFIELD RUN
14F000244 15:38:28 1 MEET 2200 LAKE AVE
14F000246 15:43:06 30 TRAFFIC STOP 3800 WASHINGTON RD N & ARDMORE AVE
14F000247 15:44:23 103 UNWANTED 1500 GOSHEN AVE
14F000248 15:45:31 22N CHILD NEGLE 4100 CLINTON ST N
14F000250 15:47:48 45 NEIGHBORHOOD 7700 CLOVER MEADOW DR
14F000249 15:49:04 911 HANG UP 2400 GAY ST
14F000252 15:54:24 46 DOMESTIC 4800 TRACE DR
14F000254 15:57:41 51 THEFT 2400 NEW HAVEN AVE
14F000253 15:58:24 50,ATTEMPTED 3000 SWIFT DR
14F000256 15:59:12 46 DOMESTIC 600 LAWTON PL
14F000255 16:05:30 1 MEET 00 MAIN ST E
14F000257 16:12:45 911 HANG UP 2900 GOSHEN RD
14F000258 16:15:10 911 HANG UP 100 WASHINGTON CENTER RD W
14F000261 16:19:19 1 MEET 4700 BARRINGTON DR
14F000259 16:19:49 46,62 8400 NORWARD LN
14F000260 16:23:15 911 HANG UP 8500 EVENTER TRL
14F000267 16:36:18 47 REMOVE ITEMS 5800 BUNT DR
14F000262 16:40:32 43 DISTURBANCE 900 JEFFERSON BLVD W
14F000263 17:03:06 911 HANG UP 2300 CURDES AVE
14F000264 17:05:16 47 REMOVE ITEMS 5500 HARRISON ST S
14F000265 17:11:19 102,TX THREATS 4600 BARRINGTON DR
14F000266 17:11:51 911 HANG UP 3000 COLISEUM BLVD W
14F000268 17:21:23 911 HANG UP 400 JEFFERSON BLVD W & FAIRFIELD A
14F000270 17:23:01 40 ALARM 2900 PAULDING RD E
14F000269 17:23:36 30 TRAFFIC STOP 5700 FAIRFIELD AVE & PAULDING RD W
14F000271 17:24:43 51IP 1700 APPLE GLEN BLVD
14F000272 17:32:48 63Z ZACH CHECK 300 DEWALD ST W
14F000273 17:41:59 129 6900 ORDWAY DR
14F000274 17:44:15 46,96 5300 PIN TAIL PL
14F000276 17:45:54 63 CONTACT 600 HUFFMAN ST
14F000275 17:46:24 911 HANG UP 7300 BURNSDALE AVE
14F000277 17:57:09 46 DOMESTIC 600 WAGNER ST
14F000278 18:12:59 25 PD ACCIDENT 600 CLAY ST & MAIN ST E
14F000279 18:14:07 40A AUDIBLE 6600 ST JOE RD
14F000280 18:17:30 48 SUSPICIOUS 5600 ST JOE RD
14F000281 18:20:06 24 MISSING PERS 3600 DELRAY DR
14F000282 18:28:44 65A SUICIDE ATT 4500 WILMETTE ST
14F000283 18:34:42 911 HANG UP 900 WASHINGTON BLVD E
14F000284 18:37:17 33 DISABLED VEH 30900 I 69 NB
14F000285 18:42:18 46,96 4000 BOWSER AVE
14F000286 18:42:31 911 HANG UP 7300 DECATUR RD
14F000288 18:46:27 25 PD ACCIDENT 3500 US 30 W & I 69 309 SB ON RAMP
14F000287 18:46:34 33 DISABLED VEH 1400 COLISEUM BLVD N & LAKE AVE
14F000289 18:46:57 911 HANG UP 2900 CLINTON ST N
14F000292 18:53:52 25HS HIT SKIP 1200 TENNESSEE AVE
14F000290 18:55:02 96JO 3400 MONTAGNE DR
14F000291 18:57:46 46 DOMESTIC 300 BERRY ST W
14F000294 19:07:20 66 72 HOUR 1700 BEACON ST
14F000293 19:07:47 25 PD ACCIDENT 200 WASHINGTON CENTER RD E
14F000295 19:13:41 48 SUSPICIOUS 800 WEBSTER ST
14F000296 19:16:33 113 SHOTS FIRED 600 TAYLOR ST
14F000298 19:20:36 48 SUSPICIOUS 1800 KENTUCKY AVE
14F000297 19:21:17 40A AUDIBLE 2500 FAIRFIELD AVE
14F000300 19:22:19 911 HANG UP 1100 CEDAR ST & LEWIS ST E
14F000299 19:22:36 25HS HIT SKIP 400 MASTERSON AVE E & LAFAYETTE ST
14F000301 19:25:49 51 THEFT 2500 JOHN ST
14F000302 19:34:27 103 UNWANTED 3600 GRAYSTON AVE
14F000303 19:35:01 911 HANG UP 4500 SOUTHPARK DR
14F000308 19:46:40 14 WARRANT 1100 ROOSEVELT DR
14F000304 19:52:44 911 HANG UP 3100 WEBSTER ST
14F000306 19:53:05 39JO 3500 CENTRAL DR
14F000305 19:55:19 48,36 10100 TORCH LAKE CV
14F000307 20:01:19 25 PD ACCIDENT 10400 PARKVIEW PLAZA DR & DUPONT R
14F000309 20:07:07 46,96 6500 ST JOE RD
14F000310 20:09:01 26 PI ACCIDENT 30800 I 69 SB
14F000311 20:15:05 96 BATTERY 600 FOURTH ST W
14F000312 20:21:38 66V MENTAL VIOL 2900 CLINTON ST N
14F000316 20:23:06 51 THEFT 3000 EUCLID AVE
14F000313 20:23:16 30 TRAFFIC STOP 4500 ANTHONY BLVD S
14F000318 20:24:14 63 CONTACT 5500 STELLHORN RD
14F000314 20:29:04 103 UNWANTED 2600 HOAGLAND AVE
14F000315 20:30:06 46,96 2100 RIEDMILLER AVE
14F000317 20:34:05 103 UNWANTED 400 RUDISILL BLVD E
14F000319 20:48:34 48 SUSPICIOUS 2400 FAIRFIELD AVE
14F000320 20:53:13 911 HANG UP 2800 MILLBROOK DR
14F000321 20:56:22 25HS HIT SKIP 3400 WAYNE TRACE
14F000322 20:58:58 25 PD ACCIDENT 30900 I 69 NB
14F000323 21:02:35 30 TRAFFIC STOP 1400 ST JOSEPH BLVD & TENNESSEE AV
14F000324 21:02:48 30 TRAFFIC STOP 2200 CLINTON ST S & CREIGHTON AVE
14F000325 21:07:00 911 HANG UP 5200 ANTHONY BLVD S
14F000326 21:10:50 40A AUDIBLE 200 MAPLE GROVE AVE E
14F000328 21:11:20 34 TRAFF HAZARD 7100 COVINGTON RD & HADLEY RD S
14F000327 21:14:35 58 SHOOTING 3700 TRACE CIR
14F000329 21:22:56 HARASSMENT 1300 COOK RD W
14F000330 21:26:02 113 SHOTS FIRED 3800 FAIRFIELD AVE
14F000331 21:27:50 43 DISTURBANCE 2500 BROADWAY
14F000332 21:28:31 911 HANG UP 1100 FAYETTE DR
14F000333 21:31:27 51IP 1100 HARRISON ST S
14F000334 21:35:43 911 HANG UP 5000 FAIRFIELD AVE
14F000336 21:48:09 25 PD ACCIDENT 1600 WELLS ST & SPRING ST
14F000337 21:52:40 36 OCCUPIED VEH 4700 OXFORD ST & MEYER RD
14F000339 21:57:10 48 SUSPICIOUS 3500 EASTWOOD DR
14F000338 21:58:00 25 PD ACCIDENT 1700 ST JOE CENTER RD
14F000340 21:59:21 33,34 100 STATE BLVD E & EASTBROOK DR
14F000342 22:01:04 43 DISTURBANCE 10800 KNOLLTON RUN
14F000341 22:01:34 33 DISABLED VEH 6500 COVINGTON RD
14F000343 22:07:04 25 PD ACCIDENT 1700 PETTIT AVE E & ANTHONY BLVD S
14F000344 22:08:12 25 PD ACCIDENT 3000 I 469 NB
14F000345 22:12:52 46,96 900 BAXTER ST
14F000346 22:13:36 911 HANG UP 1100 FAYETTE DR
14F000347 22:14:48 911 HANG UP 2200 HOLTON AVE
14F000348 22:17:19 911 HANG UP 1200 INWOOD DR
14F000349 22:20:36 25 PD ACCIDENT 5400 CLINTON ST N
14F000350 22:39:44 16V PICKUP VID 00 MAIN ST E
14F000351 22:40:44 911 HANG UP 4800 SMITH ST
14F000352 22:42:10 33,34 2200 ANTHONY BLVD S & CREIGHTON AV
14F000353 22:45:02 39U UNAUTHORIZE 7200 WOODLYNN DR
14F000356 22:53:14 911 HANG UP 700 GOSHEN AVE
14F000357 22:53:16 33,34 3500 BROADWAY & BLUFFTON RD
14F000354 22:53:58 30 TRAFFIC STOP 3500 BROADWAY & BLUFFTON RD
14F000355 22:53:59 41 MAN DOWN 200 WASHINGTON BLVD W
14F000358 23:00:23 43 DISTURBANCE 7000 POINTE INVERNESS WAY
14F000359 23:05:11 911 HANG UP 1400 EAGLE ST
14F000360 23:07:24 20 PROBLEM UNK 3700 WASHINGTON BLVD E
14F000361 23:11:16 50,ATTEMPTED 1900 FOX POINT TRL
14F000362 23:12:26 63 CONTACT 3800 SOUTHPARK DR
14F000363 23:21:59 40A AUDIBLE 7500 COLDWATER RD
14F000364 23:24:01 30 TRAFFIC STOP 600 WALLACE ST E & HANNA ST S
14F000365 23:26:48 46 DOMESTIC 3700 WASHINGTON BLVD E
14F000366 23:27:18 34 TRAFF HAZARD 7300 MAPLECREST RD & ROTHMAN RD
14F000368 23:29:30 39U UNAUTHORIZE 4800 OLIVER ST
14F000369 23:29:44 25HS HIT SKIP 3100 ANTHONY BLVD S
14F000371 23:32:02 44LM 900 WASHINGTON BLVD E
14F000367 23:32:55 911 HANG UP 1600 RICHARDSON ST
14F000370 23:35:12 911 HANG UP 3600 HIAWATHA BLVD
14F000372 23:52:11 911 HANG UP 2000 NUTTMAN AVE
14F000374 23:56:39 911 HANG UP 3400 STONE BLVD
14F000373 23:59:15 46 DOMESTIC 3800 NEWPORT AVE
Amber Alert

All-America City